timestamp,wind_dir_avg,wind_spd_avg,wind_spd_max_dir,wind_spd_gust,battery_voltage,lat,long
2021-02-14 00:04:01+00:00,328.0,7.94,335.0,9.67,12.57,47.59359,-54.27349
2021-02-14 00:14:01+00:00,335.0,8.06,345.0,9.19,12.49,47.59359,-54.27349
2021-02-14 00:24:01+00:00,330.0,7.75,333.0,8.64,12.49,47.59359,-54.27349
2021-02-14 00:34:01+00:00,326.0,8.11,326.0,10.57,12.49,47.59359,-54.27349
2021-02-14 00:44:01+00:00,336.0,8.62,347.0,9.84,12.49,47.59359,-54.27349
2021-02-14 00:54:01+00:00,345.0,8.41,346.0,9.42,12.49,47.59359,-54.27349
2021-02-14 01:04:01+00:00,336.0,6.97,338.0,8.16,12.49,47.59359,-54.27349
2021-02-14 01:14:01+00:00,347.0,7.12,341.0,8.06,12.49,47.59359,-54.27349
2021-02-14 01:24:01+00:00,340.0,5.79,345.0,7.47,12.49,47.59359,-54.27349
2021-02-14 01:34:01+00:00,350.0,5.63,352.0,6.5,12.49,47.59359,-54.27349
2021-02-14 01:44:01+00:00,347.0,6.69,350.0,7.86,12.49,47.59359,-54.27349
2021-02-14 01:54:01+00:00,336.0,6.32,338.0,7.0,12.49,47.59359,-54.27349
2021-02-14 02:04:01+00:00,303.0,6.52,304.0,7.89,12.49,47.59359,-54.27349
2021-02-14 02:14:01+00:00,321.0,5.67,305.0,7.66,12.49,47.59359,-54.27349
2021-02-14 02:24:01+00:00,337.0,8.38,339.0,10.11,12.49,47.59359,-54.27349
2021-02-14 02:34:01+00:00,335.0,9.7,340.0,10.73,12.49,47.59359,-54.27349
2021-02-14 02:44:01+00:00,333.0,9.38,336.0,11.12,12.49,47.59359,-54.27349
2021-02-14 02:54:01+00:00,328.0,9.59,323.0,11.17,12.49,47.59359,-54.27349
2021-02-14 03:04:01+00:00,332.0,9.92,332.0,11.31,12.49,47.59359,-54.27349
2021-02-14 03:14:01+00:00,334.0,9.18,330.0,11.01,12.41,47.59359,-54.27349
2021-02-14 03:24:01+00:00,321.0,9.85,318.0,11.16,12.41,47.59359,-54.27349
2021-02-14 03:34:01+00:00,330.0,9.23,338.0,10.83,12.41,47.59359,-54.27349
2021-02-14 03:44:01+00:00,322.0,8.46,320.0,9.7,12.41,47.59359,-54.27349
2021-02-14 03:54:01+00:00,320.0,8.78,319.0,9.82,12.41,47.59359,-54.27349
2021-02-14 04:04:01+00:00,346.0,8.24,351.0,9.71,12.41,47.59359,-54.27349
2021-02-14 04:14:01+00:00,352.0,10.02,352.0,10.83,12.41,47.59359,-54.27349
2021-02-14 04:24:01+00:00,334.0,9.15,336.0,11.13,12.41,47.59359,-54.27349
2021-02-14 04:34:01+00:00,349.0,9.74,350.0,11.73,12.41,47.59359,-54.27349
2021-02-14 04:44:01+00:00,330.0,7.46,330.0,8.55,12.41,47.59359,-54.27349
2021-02-14 04:54:01+00:00,348.0,8.48,334.0,11.52,12.41,47.59359,-54.27349
2021-02-14 05:04:01+00:00,323.0,8.58,320.0,10.02,12.41,47.59359,-54.27349
2021-02-14 05:14:01+00:00,330.0,8.4,327.0,10.02,12.41,47.59359,-54.27349
2021-02-14 05:24:01+00:00,345.0,7.74,344.0,9.31,12.41,47.59359,-54.27349
2021-02-14 05:34:01+00:00,324.0,7.44,322.0,8.53,12.41,47.59359,-54.27349
2021-02-14 05:44:01+00:00,333.0,7.11,325.0,8.49,12.41,47.59359,-54.27349
2021-02-14 05:54:01+00:00,346.0,8.68,346.0,9.57,12.41,47.59359,-54.27349
2021-02-14 06:04:01+00:00,327.0,7.89,335.0,9.18,12.41,47.59359,-54.27349
2021-02-14 06:14:01+00:00,326.0,8.99,321.0,10.29,12.41,47.59359,-54.27349
2021-02-14 06:24:01+00:00,323.0,8.94,322.0,10.28,12.41,47.59359,-54.27349
2021-02-14 06:34:01+00:00,331.0,8.08,341.0,9.33,12.41,47.59359,-54.27349
2021-02-14 06:44:01+00:00,328.0,9.36,328.0,11.51,12.41,47.59359,-54.27349
2021-02-14 06:54:01+00:00,336.0,8.77,349.0,10.22,12.41,47.59359,-54.27349
2021-02-14 07:04:01+00:00,320.0,10.03,325.0,11.44,12.41,47.59359,-54.27349
2021-02-14 07:14:01+00:00,329.0,8.19,328.0,9.44,12.33,47.59359,-54.27349
2021-02-14 07:24:01+00:00,311.0,9.29,305.0,11.61,12.33,47.59359,-54.27349
2021-02-14 07:34:01+00:00,320.0,11.83,318.0,13.18,12.33,47.59359,-54.27349
2021-02-14 07:44:01+00:00,315.0,9.1,317.0,11.36,12.33,47.59359,-54.27349
2021-02-14 07:54:01+00:00,306.0,8.78,304.0,10.15,12.33,47.59359,-54.27349
2021-02-14 08:04:01+00:00,303.0,9.07,295.0,11.02,12.33,47.59359,-54.27349
2021-02-14 08:14:01+00:00,309.0,8.61,319.0,10.02,12.33,47.59359,-54.27349
2021-02-14 08:24:01+00:00,308.0,8.52,305.0,10.14,12.33,47.59359,-54.27349
2021-02-14 08:34:01+00:00,308.0,8.46,301.0,10.46,12.33,47.59359,-54.27349
2021-02-14 08:44:01+00:00,304.0,7.5,300.0,8.76,12.33,47.59359,-54.27349
2021-02-14 08:54:01+00:00,309.0,7.85,307.0,9.19,12.33,47.59359,-54.27349
2021-02-14 09:04:01+00:00,306.0,8.75,307.0,10.24,12.33,47.59359,-54.27349
2021-02-14 09:14:01+00:00,314.0,7.7,309.0,9.04,12.25,47.59359,-54.27349
2021-02-14 09:24:01+00:00,325.0,8.91,324.0,10.71,12.25,47.59359,-54.27349
2021-02-14 09:34:01+00:00,311.0,8.8,316.0,10.36,12.25,47.59359,-54.27349
2021-02-14 09:44:01+00:00,320.0,8.93,316.0,10.74,12.25,47.59359,-54.27349
2021-02-14 09:54:01+00:00,318.0,8.58,313.0,10.59,12.25,47.59359,-54.27349
2021-02-14 10:04:01+00:00,317.0,8.36,322.0,9.8,12.25,47.59359,-54.27349
2021-02-14 10:14:01+00:00,324.0,8.28,329.0,9.19,12.33,47.59359,-54.27349
2021-02-14 10:24:01+00:00,309.0,8.24,315.0,9.19,12.33,47.59359,-54.27349
2021-02-14 10:34:01+00:00,311.0,8.91,306.0,11.47,12.33,47.59359,-54.27349
2021-02-14 10:44:01+00:00,313.0,8.44,318.0,9.89,12.33,47.59359,-54.27349
2021-02-14 10:54:01+00:00,323.0,9.67,330.0,10.88,12.33,47.59359,-54.27349
2021-02-14 11:04:01+00:00,324.0,8.71,321.0,10.82,12.33,47.59359,-54.27349
2021-02-14 11:14:01+00:00,320.0,9.24,321.0,11.49,12.41,47.59359,-54.27349
2021-02-14 11:24:01+00:00,321.0,8.65,320.0,10.64,12.41,47.59359,-54.27349
2021-02-14 11:34:01+00:00,325.0,9.4,321.0,11.1,12.41,47.59359,-54.27349
2021-02-14 11:44:01+00:00,324.0,9.29,322.0,10.48,12.41,47.59359,-54.27349
2021-02-14 11:54:01+00:00,326.0,8.57,324.0,10.18,12.41,47.59359,-54.27349
2021-02-14 12:04:01+00:00,312.0,7.94,310.0,8.76,12.41,47.59359,-54.27349
2021-02-14 12:14:01+00:00,317.0,7.61,311.0,8.75,13.68,47.59359,-54.27349
2021-02-14 12:24:01+00:00,318.0,8.8,319.0,10.0,13.68,47.59359,-54.27349
2021-02-14 12:34:01+00:00,308.0,7.34,309.0,8.3,13.68,47.59359,-54.27349
2021-02-14 12:44:01+00:00,307.0,8.08,312.0,9.01,13.68,47.59359,-54.27349
2021-02-14 12:54:01+00:00,311.0,7.55,309.0,8.5,13.68,47.59359,-54.27349
2021-02-14 13:04:01+00:00,304.0,7.32,299.0,8.47,13.68,47.59359,-54.27349
2021-02-14 13:14:01+00:00,308.0,8.24,310.0,8.95,14.24,47.59359,-54.27349
2021-02-14 13:24:01+00:00,313.0,6.34,322.0,7.26,14.24,47.59359,-54.27349
2021-02-14 13:34:01+00:00,308.0,7.69,306.0,8.83,14.24,47.59359,-54.27349
2021-02-14 13:44:01+00:00,307.0,6.31,305.0,7.98,14.24,47.59359,-54.27349
2021-02-14 13:54:01+00:00,301.0,4.81,290.0,6.55,14.24,47.59359,-54.27349
2021-02-14 14:04:01+00:00,300.0,5.3,305.0,6.94,14.24,47.59359,-54.27349
2021-02-14 14:14:01+00:00,304.0,5.96,308.0,7.12,13.68,47.59359,-54.27349
2021-02-14 14:24:01+00:00,295.0,6.25,287.0,8.67,13.68,47.59359,-54.27349
2021-02-14 14:34:01+00:00,284.0,5.94,293.0,7.2,13.68,47.59359,-54.27349
2021-02-14 14:44:01+00:00,309.0,4.47,304.0,5.05,13.68,47.59359,-54.27349
2021-02-14 14:54:01+00:00,310.0,5.39,311.0,6.59,13.68,47.59359,-54.27349
2021-02-14 15:04:01+00:00,315.0,5.01,310.0,5.65,13.68,47.59359,-54.27349
2021-02-14 15:14:01+00:00,324.0,4.7,322.0,5.64,14.32,47.59359,-54.27349
2021-02-14 15:24:01+00:00,322.0,4.33,324.0,5.29,14.32,47.59359,-54.27349
2021-02-14 15:34:01+00:00,341.0,4.5,338.0,5.65,14.32,47.59359,-54.27349
2021-02-14 15:44:01+00:00,352.0,4.44,352.0,5.13,14.32,47.59359,-54.27349
2021-02-14 15:54:01+00:00,320.0,3.09,323.0,4.28,14.32,47.59359,-54.27349
2021-02-14 16:04:01+00:00,326.0,3.11,335.0,4.31,14.32,47.59359,-54.27349
2021-02-14 16:14:01+00:00,314.0,2.92,314.0,3.76,13.84,47.59359,-54.27349
2021-02-14 16:24:01+00:00,351.0,2.26,349.0,3.27,13.84,47.59359,-54.27349
2021-02-14 16:34:01+00:00,340.0,1.95,339.0,3.32,13.84,47.59359,-54.27349
2021-02-14 16:44:01+00:00,342.0,2.73,347.0,3.44,13.84,47.59359,-54.27349
2021-02-14 16:54:01+00:00,354.0,3.55,346.0,4.71,13.84,47.59359,-54.27349
2021-02-14 17:04:01+00:00,336.0,2.85,328.0,3.88,13.84,47.59359,-54.27349
2021-02-14 17:14:01+00:00,355.0,2.74,0.0,4.0,13.68,47.59359,-54.27349
2021-02-14 17:24:01+00:00,297.0,1.94,297.0,2.97,13.68,47.59359,-54.27349
2021-02-14 17:34:01+00:00,276.0,3.84,276.0,4.93,13.68,47.59359,-54.27349
2021-02-14 17:44:01+00:00,268.0,1.91,271.0,2.4,13.68,47.59359,-54.27349
2021-02-14 17:54:01+00:00,270.0,1.84,274.0,2.81,13.68,47.59359,-54.27349
2021-02-14 18:04:01+00:00,256.0,2.2,251.0,2.98,13.68,47.59359,-54.27349
2021-02-14 18:14:01+00:00,245.0,3.33,252.0,4.04,13.84,47.59359,-54.27349
2021-02-14 18:24:01+00:00,251.0,2.24,259.0,2.84,13.84,47.59359,-54.27349
2021-02-14 18:34:01+00:00,245.0,3.08,249.0,4.21,13.84,47.59359,-54.27349
2021-02-14 18:44:01+00:00,250.0,2.02,246.0,2.48,13.84,47.59359,-54.27349
2021-02-14 18:54:01+00:00,239.0,2.73,242.0,3.55,13.84,47.59359,-54.27349
2021-02-14 19:04:01+00:00,237.0,1.34,232.0,1.73,13.84,47.59359,-54.27349
2021-02-14 19:14:01+00:00,249.0,2.69,252.0,3.47,13.84,47.59359,-54.27349
2021-02-14 19:24:01+00:00,232.0,2.21,244.0,2.96,13.84,47.59359,-54.27349
2021-02-14 19:34:01+00:00,220.0,3.89,226.0,4.39,13.84,47.59359,-54.27349
2021-02-14 19:44:01+00:00,220.0,4.8,210.0,6.05,13.84,47.59359,-54.27349
2021-02-14 19:54:01+00:00,206.0,4.2,211.0,4.79,13.84,47.59359,-54.27349
2021-02-14 20:04:01+00:00,202.0,3.75,203.0,4.98,13.84,47.59359,-54.27349
2021-02-14 20:14:01+00:00,206.0,5.13,211.0,6.45,13.76,47.59359,-54.27349
2021-02-14 20:24:01+00:00,208.0,5.48,217.0,7.13,13.76,47.59359,-54.27349
2021-02-14 20:34:01+00:00,229.0,4.78,221.0,5.74,13.76,47.59359,-54.27349
2021-02-14 20:44:01+00:00,240.0,5.92,240.0,7.26,13.76,47.59359,-54.27349
2021-02-14 20:54:01+00:00,234.0,7.44,231.0,8.77,13.76,47.59359,-54.27349
2021-02-14 21:04:01+00:00,247.0,7.08,249.0,8.2,13.76,47.59359,-54.27349
2021-02-14 21:14:01+00:00,245.0,7.49,243.0,8.57,13.05,47.59359,-54.27349
2021-02-14 21:24:01+00:00,248.0,7.99,241.0,8.83,13.05,47.59359,-54.27349
2021-02-14 21:34:01+00:00,252.0,7.12,248.0,7.74,13.05,47.59359,-54.27349
2021-02-14 21:44:01+00:00,251.0,7.89,252.0,8.47,13.05,47.59359,-54.27349
2021-02-14 21:54:01+00:00,250.0,7.82,244.0,9.08,13.05,47.59359,-54.27349
2021-02-14 22:04:01+00:00,258.0,7.23,261.0,8.05,13.05,47.59359,-54.27349
2021-02-14 22:14:01+00:00,270.0,6.58,271.0,7.41,12.65,47.59359,-54.27349
2021-02-14 22:24:01+00:00,263.0,6.14,259.0,7.22,12.65,47.59359,-54.27349
2021-02-14 22:34:01+00:00,274.0,6.46,274.0,7.65,12.65,47.59359,-54.27349
2021-02-14 22:44:01+00:00,276.0,5.91,269.0,7.03,12.65,47.59359,-54.27349
2021-02-14 22:54:01+00:00,280.0,4.92,282.0,5.58,12.65,47.59359,-54.27349
2021-02-14 23:04:01+00:00,278.0,4.07,277.0,5.04,12.65,47.59359,-54.27349
2021-02-14 23:14:01+00:00,277.0,4.11,287.0,4.85,12.49,47.59359,-54.27349
2021-02-14 23:24:01+00:00,297.0,3.37,298.0,4.13,12.49,47.59359,-54.27349
2021-02-14 23:34:01+00:00,291.0,4.25,288.0,5.37,12.49,47.59359,-54.27349
2021-02-14 23:44:01+00:00,291.0,4.85,291.0,5.88,12.49,47.59359,-54.27349
2021-02-14 23:54:01+00:00,293.0,5.34,290.0,6.66,12.49,47.59359,-54.27349
